Weiss Lake Weather Center

Moon Phase Calendar



Weiss Lake Water Level
Online Cameras

 


      

Current Conditions in Cedar Bluff
5/19/2022 12:32:25 AM

68°F
Feels Like 69
Clouds
Humidity
94%
Pressure
29.88"
Wind
3.6 mph (W)
Dew Point
67°F
UV Index
0/10 (Low)
Visibility
6 mi

Hourly Forecast

Date & Time Thu, May 19
12:00 AM
Thu, May 19
1:00 AM
Thu, May 19
2:00 AM
Thu, May 19
3:00 AM
Thu, May 19
4:00 AM
Thu, May 19
5:00 AM
Thu, May 19
6:00 AM
Thu, May 19
7:00 AM
Thu, May 19
8:00 AM
Thu, May 19
9:00 AM
Thu, May 19
10:00 AM
Thu, May 19
11:00 AM
Thu, May 19
12:00 PM
Thu, May 19
1:00 PM
Thu, May 19
2:00 PM
Thu, May 19
3:00 PM
Thu, May 19
4:00 PM
Thu, May 19
5:00 PM
Thu, May 19
6:00 PM
Thu, May 19
7:00 PM
Thu, May 19
8:00 PM
Thu, May 19
9:00 PM
Thu, May 19
10:00 PM
Thu, May 19
11:00 PM
Fri, May 20
12:00 AM
Fri, May 20
1:00 AM
Fri, May 20
2:00 AM
Fri, May 20
3:00 AM
Fri, May 20
4:00 AM
Fri, May 20
5:00 AM
Fri, May 20
6:00 AM
Fri, May 20
7:00 AM
Fri, May 20
8:00 AM
Fri, May 20
9:00 AM
Fri, May 20
10:00 AM
Fri, May 20
11:00 AM
Fri, May 20
12:00 PM
Fri, May 20
1:00 PM
Fri, May 20
2:00 PM
Fri, May 20
3:00 PM
Fri, May 20
4:00 PM
Fri, May 20
5:00 PM
Fri, May 20
6:00 PM
Fri, May 20
7:00 PM
Fri, May 20
8:00 PM
Fri, May 20
9:00 PM
Fri, May 20
10:00 PM
Fri, May 20
11:00 PM
Condition
Rain

Clouds

Clouds

Clouds

Clouds

Clear

Clear

Clear

Clear

Clear

Clear

Clouds

Clouds

Clouds

Clear

Clear

Clear

Clear

Clear

Clear

Clear

Clear

Clear

Clear

Clear

Clear

Clouds

Clouds

Clouds

Clouds

Clouds

Clouds

Clear

Clear

Clear

Clear

Clear

Clear

Clear

Clear

Clear

Clear

Clouds

Clouds

Clouds

Clouds

Clouds

Clouds
Temperature 68°F68°F68°F68°F67°F66°F66°F69°F73°F78°F84°F87°F90°F92°F93°F94°F93°F92°F88°F81°F76°F74°F72°F71°F70°F69°F69°F68°F66°F65°F65°F69°F74°F78°F82°F85°F88°F90°F92°F93°F92°F91°F88°F82°F78°F76°F78°F78°F
Feels Like 69°F69°F69°F69°F68°F67°F67°F70°F74°F79°F86°F89°F91°F93°F94°F93°F93°F92°F89°F82°F76°F74°F72°F71°F70°F69°F69°F68°F67°F66°F66°F70°F75°F79°F83°F86°F88°F89°F91°F91°F91°F91°F89°F83°F78°F76°F78°F78°F
Cloudiness 32%31%27%21%15%9%3%3%0%0%9%20%23%19%0%1%2%3%4%4%0%0%0%0%1%2%48%48%49%42%35%30%3%3%4%4%4%5%5%4%7%7%12%16%11%22%46%58%
Visibility 6 mi6 mi6 mi6 mi6 mi6 mi6 mi6 mi6 mi6 mi6 mi6 mi6 mi6 mi6 mi6 mi6 mi6 mi6 mi6 mi6 mi6 mi6 mi6 mi6 mi6 mi6 mi6 mi6 mi6 mi6 mi6 mi6 mi6 mi6 mi6 mi6 mi6 mi6 mi6 mi6 mi6 mi6 mi6 mi6 mi6 mi6 mi6 mi
Precipitation 76%77%57%55%49%40%40%40%0%0%0%0%0%0%0%0%0%0%0%0%0%0%0%0%0%0%0%0%0%0%0%0%0%0%0%0%0%0%0%0%0%0%0%0%0%0%0%0%
Humidity 93%94%95%95%95%97%97%94%88%74%59%50%43%39%35%33%33%35%42%56%60%64%67%68%70%73%76%81%85%89%90%82%74%66%55%46%39%35%32%30%30%34%42%56%57%59%56%55%
Dew Point 66°F67°F67°F66°F66°F66°F65°F67°F69°F69°F67°F66°F64°F63°F61°F60°F59°F61°F62°F63°F61°F60°F60°F60°F59°F59°F60°F61°F61°F61°F62°F63°F65°F65°F63°F61°F60°F59°F58°F57°F56°F59°F62°F64°F61°F60°F60°F60°F
Pressure 29.88"29.88"29.88"29.88"29.88"29.88"29.91"29.91"29.91"29.88"29.88"29.88"29.85"29.85"29.83"29.8"29.77"29.77"29.77"29.77"29.8"29.83"29.83"29.83"29.83"29.85"29.83"29.85"29.88"29.88"29.91"29.94"29.94"29.97"29.94"29.94"29.94"29.91"29.91"29.88"29.88"29.91"29.91"29.91"29.91"29.94"29.97"29.97"
Wind Speed 4.9 mph3.6 mph2.5 mph2.2 mph2.8 mph4.7 mph4.3 mph3.8 mph7.3 mph10.3 mph11.5 mph10.7 mph11.1 mph10.4 mph10.7 mph11.4 mph11 mph9.6 mph8.8 mph5.1 mph4.4 mph3.5 mph3.2 mph3.2 mph3 mph4.8 mph5.7 mph5.1 mph3.9 mph3.4 mph3.2 mph3.8 mph7.4 mph9.4 mph10.2 mph10.6 mph10.8 mph11.1 mph11.5 mph11.5 mph11.4 mph9.5 mph6.3 mph2.6 mph2.4 mph3.8 mph4.8 mph4.7 mph
Wind
Direction
244°
WSW
269°
W
215°
SW
216°
SW
224°
SW
223°
SW
244°
WSW
237°
WSW
231°
SW
233°
SW
243°
WSW
247°
WSW
248°
WSW
251°
WSW
249°
WSW
244°
WSW
239°
WSW
234°
SW
228°
SW
216°
SW
223°
SW
238°
WSW
211°
SSW
204°
SSW
211°
SSW
209°
SSW
202°
SSW
199°
SSW
198°
SSW
186°
S
185°
S
192°
SSW
206°
SSW
208°
SSW
205°
SSW
204°
SSW
204°
SSW
202°
SSW
201°
SSW
200°
SSW
202°
SSW
205°
SSW
208°
SSW
195°
SSW
140°
SE
128°
SE
153°
SSE
181°
S

Daily Forecast

Date High Low Precip. Humidity
Today
May 19

Rain
94 °F
66 °F
97%
43%
Friday
May 20

Clear
92 °F
65 °F
0%
39%
Saturday
May 21

Rain
91 °F
66 °F
31%
37%
Sunday
May 22

Rain
83 °F
63 °F
100%
61%
Monday
May 23

Rain
74 °F
64 °F
100%
75%
Tuesday
May 24

Clouds
80 °F
55 °F
10%
67%
Wednesday
May 25

Rain
84 °F
64 °F
97%
71%
Thursday
May 26

Rain
81 °F
66 °F
100%
76%
Friday
May 27

Rain
90 °F
68 °F
60%
43%
Saturday
May 28

Rain
85 °F
69 °F
97%
76%
Sunday
May 29

Rain
89 °F
70 °F
64%
40%
Monday
May 30

Clouds
89 °F
70 °F
5%
49%
Tuesday
May 31

Clouds
93 °F
70 °F
0%
39%
Wednesday
Jun 1

Rain
91 °F
67 °F
61%
46%
Thursday
Jun 2

Clouds
87 °F
61 °F
21%
50%
Friday
Jun 3

Clouds
80 °F
69 °F
1%
64%

Temperature 8-14 Day Outlook



Precipitation 8-14 Day Outlook




Quick Links
Weiss Lake News
Weiss Lake Photos
Weiss Lake Videos




About Us
Contact Us
Site Map
Search Site
Advertise With Us
   
www.LakeWeiss.info
THE WEISS LAKE WEBSITE

Copyright 2022, Lakes Online
Privacy    |    Legal